logo tempoitalia

Diretta Meteo Cannes, Franciamartedì 17 maggio ore 05:30

Mappa
Sereno 15 °C Poco Nuvoloso 24 Ore: T.min 14 T.max 25
Ponente Nord Km/h 7.4 Punto di rugiada: 13 °C Umidità: 87% Visibilità: 10 Km
Il sole sorge alle: 06:03 Il sole tramonta alle: 20:53
17 Maggio 2022 05:30 tempo osservato: Poco Nuvoloso Poco Nuvoloso 15 87 1019 vento: Nord N 7.4
17 Maggio 2022 05:00 tempo osservato: Sereno Sereno 15 87 1019 vento: Nord N 5.5
17 Maggio 2022 04:30 tempo osservato: Sereno Sereno 15 87 1019 vento: Nord N 7.4
17 Maggio 2022 04:00 tempo osservato: Sereno Sereno 15 93 1019 vento: Nord N 5.5
17 Maggio 2022 03:30 tempo osservato: Sereno Sereno 16 87 1019 vento: Nord N 5.5
17 Maggio 2022 03:00 tempo osservato: Sereno Sereno 16 87 1019 vento: Nord N 3.7
17 Maggio 2022 02:30 tempo osservato: Sereno Sereno 16 87 1020 vento: Nord N 5.5
17 Maggio 2022 02:00 tempo osservato: Sereno Sereno 17 88 1020 vento: Nord N 5.5
17 Maggio 2022 01:30 tempo osservato: Sereno Sereno 17 88 1020 vento: Nord N 3.7
17 Maggio 2022 01:00 tempo osservato: Sereno Sereno 17 88 1020 vento: Nord N 5.5
17 Maggio 2022 00:30 tempo osservato: Sereno Sereno 18 82 1020 vento: Nord N 7.4
17 Maggio 2022 00:00 tempo osservato: Sereno Sereno 18 82 1019 vento: Nord N 7.4
16 Maggio 2022 23:30 tempo osservato: Sereno Sereno 17 82 1019 vento: Nord N 5.5
16 Maggio 2022 23:00 tempo osservato: Sereno Sereno 18 77 1019 vento: Nord N 5.5
16 Maggio 2022 22:30 tempo osservato: Sereno Sereno 18 77 1019 vento: Nord N 5.5
16 Maggio 2022 22:00 tempo osservato: Sereno Sereno 20 68 1019 vento: Nord N 1.8
16 Maggio 2022 21:30 tempo osservato: Sereno Sereno 20 64 1018 vento: Nord N 1.8
16 Maggio 2022 21:00 tempo osservato: Sereno Sereno 21 60 1018 vento: Nord N 3.7
16 Maggio 2022 20:30 tempo osservato: Sereno Sereno 22 60 1018 vento: Nord N 1.8
16 Maggio 2022 20:00 tempo osservato: Sereno Sereno 24 50 1018 vento: Nord N 3.7
16 Maggio 2022 19:30 tempo osservato: Sereno Sereno 25 47 1018 vento: Nord N 0
16 Maggio 2022 19:00 tempo osservato: Sereno Sereno 24 53 1018 vento: Nord N 1.8
16 Maggio 2022 18:30 tempo osservato: Sereno Sereno 23 56 1018 vento: Nord N 5.5
16 Maggio 2022 18:00 tempo osservato: Sereno Sereno 22 68 1019 vento: Nord S/SE 7.4
16 Maggio 2022 17:30 tempo osservato: Sereno Sereno 22 73 1019 vento: Nord S/SE 11.1
16 Maggio 2022 17:00 tempo osservato: Sereno Sereno 22 73 1019 vento: Nord S/SE 13
16 Maggio 2022 16:30 tempo osservato: Sereno Sereno 22 73 1019 vento: Nord SE 11.1
16 Maggio 2022 16:00 tempo osservato: Poco Nuvoloso Poco Nuvoloso 22 73 1020 vento: Nord SE 13
16 Maggio 2022 15:30 tempo osservato: Poco Nuvoloso Poco Nuvoloso 22 73 1020 vento: Nord S/SE 13
16 Maggio 2022 15:00 tempo osservato: Molto Nuvoloso Molto Nuvoloso 21 77 1020 vento: Nord S/SE 13
16 Maggio 2022 14:30 tempo osservato: Molto Nuvoloso Molto Nuvoloso 21 77 1020 vento: Nord S/SE 13
16 Maggio 2022 14:00 tempo osservato: Molto Nuvoloso Molto Nuvoloso 21 77 1021 vento: Nord SE 13
16 Maggio 2022 13:30 tempo osservato: Poco Nuvoloso Poco Nuvoloso 21 77 1021 vento: Nord S/SE 13
16 Maggio 2022 13:00 tempo osservato: Sereno Sereno 21 73 1021 vento: Nord S/SE 13
16 Maggio 2022 12:30 tempo osservato: Sereno Sereno 21 73 1021 vento: Nord S/SE 11.1
16 Maggio 2022 12:00 tempo osservato: Sereno Sereno 21 73 1021 vento: Nord S/SE 11.1
16 Maggio 2022 11:30 tempo osservato: Sereno Sereno 20 77 1021 vento: Nord S/SE 11.1
16 Maggio 2022 11:00 tempo osservato: Sereno Sereno 20 77 1020 vento: Nord S/SE 11.1
16 Maggio 2022 10:30 tempo osservato: Sereno Sereno 20 77 1020 vento: Nord S/SE 9.3
16 Maggio 2022 10:00 tempo osservato: Sereno Sereno 20 77 1020 vento: Nord S/SE 9.3
16 Maggio 2022 09:30 tempo osservato: Sereno Sereno 20 72 1020 vento: Nord S/SE 7.4
16 Maggio 2022 09:00 tempo osservato: Sereno Sereno 19 77 1020 vento: Nord S/SE 7.4
16 Maggio 2022 08:30 tempo osservato: Sereno Sereno 18 77 1020 vento: Nord N 3.7
16 Maggio 2022 08:00 tempo osservato: Sereno Sereno 17 77 1020 vento: Nord N 5.5
16 Maggio 2022 07:30 tempo osservato: Sereno Sereno 15 87 1020 vento: Nord N 7.4
16 Maggio 2022 07:00 tempo osservato: Sereno Sereno 14 87 1019 vento: Nord N 5.5
16 Maggio 2022 06:30 tempo osservato: Sereno Sereno 14 87 1019 vento: Nord N 3.7
16 Maggio 2022 06:00 tempo osservato: Sereno Sereno 14 87 1019 vento: Nord N 5.5